Wind_Speed
35 34 30 33 33 33 32 32 32 30 34 36 34 32 34 33 31 30 28 27 27 28 28 28 30 32 34 37 38 36 35 36 36 37 37 37 38 39 40 41 43 45 46 48
37 35 32 33 34 36 37 37 35 37 37 35 33 29 30 30 30 31 31 30 30 30 30 29 32 34 35 37 38 40 42 40 40 40 40 41 43 44 44 44 44 46 48 50
38 37 35 36 39 41 42 41 40 40 37 35 33 31 31 30 31 34 35 36 35 34 34 34 34 36 37 38 39 39 41 43 45 46 46 46 46 47 47 48 50 53 53 53
41 39 40 42 43 44 45 42 42 38 38 36 36 37 33 33 35 36 36 35 35 35 36 38 37 37 39 40 41 42 45 47 48 49 50 52 52 51 52 54 53 54 56 57
45 46 45 44 43 41 40 40 40 39 39 40 39 41 42 39 35 35 36 34 34 36 37 37 38 40 42 43 44 44 45 46 47 48 50 51 52 54 55 57 56 57 58 61
42 45 45 42 40 40 39 39 40 41 42 43 39 43 45 42 42 39 37 37 39 41 40 39 39 42 44 45 45 47 48 49 50 51 52 53 54 55 57 58 59 61 62 63
39 39 39 40 39 38 39 41 43 44 42 43 44 47 45 44 44 43 41 40 39 39 43 45 46 48 51 52 54 54 55 55 55 56 57 59 60 61 62 63 65 66 68 70
36 38 37 38 38 40 43 43 43 42 46 48 47 47 45 47 46 44 42 39 39 40 41 45 49 51 54 57 59 60 61 62 63 64 65 65 65 66 67 68 69 70 72 74
40 41 39 40 41 42 43 43 39 45 47 50 53 50 47 48 49 45 40 40 43 46 47 50 54 56 59 60 61 64 66 68 68 69 69 69 70 71 71 73 73 73 73 75
43 41 41 42 43 44 43 42 45 46 48 52 55 53 54 51 50 47 46 48 48 51 52 55 58 60 62 64 67 69 70 70 70 71 74 76 76 76 76 76 76 76 76 77
42 41 43 43 46 45 45 48 49 49 52 54 55 56 57 55 52 52 51 50 51 52 54 59 62 64 67 69 71 72 73 75 76 77 78 78 77 76 77 77 78 79 81 82
46 48 49 48 50 51 52 51 51 52 50 50 54 59 60 55 52 53 53 53 54 57 60 63 65 68 71 73 74 75 77 79 80 80 82 83 83 83 83 84 85 85 85 85
52 54 52 55 58 57 54 49 46 47 51 60 57 63 56 55 55 53 53 56 59 62 64 68 70 72 74 75 77 78 79 80 81 81 82 81 80 82 83 84 86 87 88 89
60 58 60 60 59 60 57 57 54 53 62 60 61 55 57 55 54 54 56 59 63 66 70 73 74 76 77 77 78 79 79 79 79 79 79 80 82 84 85 86 88 89 90 90
63 62 61 60 60 61 63 60 56 61 61 60 56 57 53 55 56 60 64 66 68 71 74 76 77 76 76 77 77 77 77 78 79 80 81 82 83 85 87 88 89 91 92 92
64 61 60 61 58 61 63 58 66 63 62 64 60 62 57 58 61 63 67 70 71 74 75 75 75 76 74 74 75 76 76 78 80 81 81 83 85 87 88 89 89 85 80 75
58 60 58 61 60 60 65 66 62 65 64 62 65 61 60 61 65 66 70 73 73 74 74 75 73 71 71 72 74 76 78 79 80 81 83 85 87 87 86 79 74 69 66 64
61 61 63 64 60 64 63 58 61 60 58 61 65 65 63 67 69 70 73 75 76 75 74 71 70 71 72 74 76 77 79 81 83 84 85 85 84 78 70 65 62 61 60 61
62 61 67 65 66 67 68 65 60 61 61 66 68 65 67 70 70 71 72 76 76 72 70 70 71 72 75 76 78 80 82 83 84 83 81 75 69 64 60 59 59 60 60 61
64 67 69 72 70 67 66 61 61 66 66 62 62 65 68 71 73 69 74 73 71 70 71 72 75 76 77 78 80 82 83 84 81 75 67 62 60 59 59 59 59 59 59 60
66 67 70 68 65 69 64 62 62 66 64 64 67 69 69 70 70 71 70 70 70 72 73 75 77 79 79 81 81 81 80 76 68 61 58 58 58 58 59 58 59 60 62 64
73 71 71 69 67 70 66 64 65 66 68 66 66 68 68 68 69 71 71 70 72 74 76 77 79 80 80 79 77 73 67 61 56 55 55 56 56 56 56 58 60 62 64 65
70 68 67 69 69 66 63 60 61 64 65 64 63 63 65 68 68 69 71 73 76 77 79 80 79 78 73 70 65 58 55 54 52 53 54 55 55 56 58 60 62 64 65 65
63 63 68 69 68 58 57 62 63 64 63 62 61 63 68 71 72 74 75 76 78 77 75 71 67 64 60 56 54 53 52 53 53 53 54 56 56 58 60 62 63 63 63 64
63 64 61 51 51 55 58 60 63 64 62 61 64 68 71 74 75 75 76 72 67 63 61 59 56 53 52 53 54 55 55 54 54 54 56 57 58 60 63 63 62 61 62 60
55 49 50 52 56 60 60 62 63 64 63 66 69 70 71 73 70 66 63 60 58 56 54 52 50 50 52 54 56 56 55 55 56 57 58 60 62 64 61 60 60 59 56 55
Wind_Direction
267 270 275 269 269 273 279 281 282 281 277 274 273 276 275 278 277 277 277 276 276 273 272 275 280 284 287 288 290 289 286 284 282 282 280 277 277 277 276 273 271 269 269 269
271 271 267 268 271 275 278 276 280 279 276 275 277 276 279 284 288 288 286 284 283 282 280 279 281 283 284 284 284 284 285 284 284 282 278 274 272 272 271 271 271 272 269 266
268 268 265 270 272 274 274 276 277 274 275 275 277 278 283 284 284 284 285 285 284 282 282 283 283 285 283 282 281 280 280 280 279 277 277 278 277 275 273 273 272 270 268 267
266 267 269 268 273 272 269 273 272 273 273 275 279 287 284 283 283 284 284 285 285 284 283 284 287 286 286 283 280 278 277 275 275 276 275 275 274 275 276 276 274 273 272 270
266 266 265 270 272 269 268 265 267 269 272 278 282 288 291 284 282 283 283 282 282 285 285 285 284 284 282 281 281 280 277 275 274 273 275 272 273 273 271 270 271 272 273 275
265 261 263 265 265 265 264 265 265 267 272 278 284 284 286 287 288 290 287 289 291 290 289 286 286 287 286 284 283 280 279 281 282 283 282 281 281 277 275 272 271 271 271 270
261 260 259 262 263 262 261 262 264 269 274 280 281 283 285 287 288 290 293 292 294 296 298 300 297 294 293 293 292 290 288 287 285 283 282 281 280 279 279 277 277 277 277 275
258 259 261 260 260 259 261 264 268 277 279 279 280 281 286 287 291 290 291 293 291 289 288 289 288 287 287 287 286 285 285 285 285 284 283 282 280 279 278 277 277 276 275 275
259 260 258 257 258 259 265 269 274 277 281 286 287 285 286 287 288 289 291 292 291 290 290 289 287 285 284 284 283 284 284 283 283 283 283 284 284 282 281 280 280 278 278 277
261 262 262 261 261 262 266 271 270 273 277 284 289 292 292 292 292 293 292 291 291 289 286 285 284 283 282 282 281 281 282 284 285 284 284 285 284 284 285 285 286 286 286 285
265 265 265 264 265 266 266 270 271 271 272 276 285 291 289 289 292 292 291 290 286 282 281 279 278 279 281 282 282 282 282 283 284 284 284 284 285 286 286 287 287 287 287 286
268 266 267 270 270 266 264 269 270 270 274 274 272 285 285 290 289 289 289 289 285 282 280 281 282 282 281 281 282 283 283 283 284 284 284 284 285 287 290 291 291 291 289 288
265 266 268 271 269 270 274 271 267 268 269 273 272 286 288 283 285 287 287 283 281 280 281 281 281 282 283 283 283 283 284 284 285 286 287 289 291 293 293 293 293 291 289 288
264 264 267 272 269 268 267 269 268 269 271 273 275 281 284 284 286 286 283 281 279 281 283 285 285 284 284 285 286 286 287 289 290 291 292 293 294 293 292 291 290 290 289 289
260 262 264 264 264 267 271 269 270 272 273 274 282 283 285 282 283 281 281 282 284 285 284 284 284 285 286 287 288 289 289 290 291 292 292 291 290 290 291 292 292 291 291 290
260 258 257 261 264 265 266 269 269 273 279 281 282 285 287 280 280 282 281 282 282 282 282 283 284 286 287 287 287 288 290 290 289 288 290 291 292 292 292 292 293 292 292 291
257 259 258 259 261 264 264 267 276 279 280 282 281 287 279 278 278 278 279 280 282 284 285 286 286 286 287 287 287 288 287 288 290 292 292 293 293 293 294 293 292 292 292 292
252 257 258 260 263 266 271 274 276 282 282 282 282 281 278 278 278 278 279 282 283 284 285 285 285 286 286 286 287 288 290 292 293 293 294 294 294 294 293 293 294 294 293 293
257 258 256 260 269 274 275 280 283 278 278 279 279 278 277 277 278 279 281 281 282 284 285 286 286 286 287 288 289 291 292 293 294 294 295 295 293 294 294 294 294 295 295 296
254 257 255 264 265 267 276 280 279 278 280 281 279 278 278 279 280 280 279 282 283 285 286 287 287 288 288 290 291 292 293 294 294 294 293 292 293 293 293 294 295 295 295 296
255 259 261 262 265 272 278 280 283 278 285 277 276 276 276 276 278 280 281 283 285 285 286 286 287 289 292 293 293 293 292 293 292 290 290 291 292 292 293 294 295 296 297 298
259 259 260 264 274 277 282 281 281 280 278 277 276 276 277 280 281 281 283 284 285 285 286 289 291 292 292 292 290 290 291 290 290 289 289 289 290 291 293 294 295 297 297 298
261 265 270 272 278 281 282 280 275 272 272 274 275 278 280 280 281 283 285 286 287 290 291 292 293 292 291 289 290 289 288 289 289 289 290 290 292 294 295 296 298 298 299 299
267 273 275 278 282 281 275 273 273 274 275 278 282 282 282 284 287 287 288 291 293 293 293 292 290 289 289 288 287 287 288 289 289 290 291 292 294 296 298 298 298 298 298 300
274 279 285 282 281 275 272 271 272 274 279 282 283 284 286 288 290 293 293 294 294 293 291 290 291 291 288 287 287 287 288 290 291 291 292 294 294 296 298 297 297 299 300 301
284 286 280 272 268 269 271 275 279 282 283 284 284 287 289 290 293 294 295 296 294 292 291 291 289 286 284 285 286 288 290 291 291 292 293 294 295 296 296 297 299 299 299 300
Height
5806 5808 5811 5809 5808 5808 5809 5810 5810 5813 5810 5807 5809 5808 5807 5808 5810 5809 5808 5807 5807 5807 5806 5806 5805 5804 5803 5802 5801 5801 5800 5797 5795 5794 5792 5790 5788 5786 5786 5785 5783 5782 5780 5778
5799 5799 5801 5801 5800 5800 5801 5801 5803 5801 5799 5799 5800 5802 5800 5800 5800 5800 5800 5800 5799 5798 5798 5798 5798 5797 5796 5794 5794 5792 5790 5788 5787 5784 5782 5781 5778 5776 5773 5772 5771 5771 5770 5767
5789 5790 5793 5793 5793 5792 5791 5792 5792 5791 5791 5790 5790 5792 5792 5792 5791 5790 5791 5791 5790 5790 5789 5789 5788 5789 5789 5787 5786 5784 5781 5780 5778 5775 5773 5772 5770 5768 5765 5763 5761 5758 5755 5753
5778 5782 5783 5783 5784 5785 5782 5784 5782 5783 5782 5782 5781 5780 5785 5785 5783 5783 5783 5783 5782 5781 5779 5779 5779 5778 5777 5775 5774 5773 5771 5769 5767 5766 5763 5761 5759 5756 5754 5753 5750 5748 5746 5742
5771 5770 5772 5774 5774 5774 5776 5774 5774 5773 5772 5772 5773 5772 5770 5773 5776 5776 5775 5773 5772 5771 5770 5769 5767 5764 5763 5761 5759 5758 5757 5756 5754 5751 5751 5750 5748 5746 5743 5740 5737 5735 5732 5730
5759 5759 5761 5763 5764 5764 5765 5765 5764 5763 5763 5762 5766 5764 5760 5761 5763 5763 5763 5762 5761 5760 5759 5758 5756 5753 5751 5749 5748 5745 5743 5741 5740 5738 5736 5734 5731 5729 5726 5724 5721 5718 5715 5712
5748 5749 5750 5752 5754 5755 5756 5755 5754 5753 5754 5753 5751 5750 5753 5753 5752 5752 5750 5748 5746 5744 5742 5741 5740 5738 5736 5734 5733 5731 5729 5727 5725 5723 5719 5716 5714 5712 5708 5705 5702 5698 5695 5692
5738 5740 5742 5744 5745 5745 5744 5745 5745 5745 5743 5743 5742 5739 5741 5741 5743 5741 5738 5736 5735 5733 5733 5731 5727 5724 5722 5720 5717 5715 5714 5711 5709 5706 5703 5700 5697 5693 5690 5688 5685 5681 5677 5672
5729 5730 5732 5733 5733 5734 5734 5733 5736 5733 5732 5732 5732 5728 5728 5729 5729 5728 5725 5722 5720 5721 5718 5715 5713 5710 5707 5704 5702 5698 5696 5693 5689 5686 5683 5680 5678 5675 5671 5667 5663 5660 5657 5653
5719 5719 5721 5722 5723 5721 5722 5725 5722 5721 5721 5719 5720 5720 5716 5715 5716 5716 5713 5711 5711 5709 5705 5701 5697 5695 5692 5689 5685 5682 5678 5674 5671 5668 5665 5662 5658 5654 5650 5647 5643 5640 5637 5634
5706 5707 5709 5710 5710 5713 5712 5710 5710 5711 5708 5706 5706 5707 5702 5702 5704 5701 5702 5701 5697 5694 5690 5686 5682 5679 5676 5672 5668 5664 5662 5658 5654 5650 5646 5642 5638 5634 5631 5627 5624 5621 5617 5613
5694 5693 5693 5696 5697 5697 5696 5698 5698 5695 5697 5695 5689 5696 5691 5694 5690 5687 5685 5684 5681 5677 5672 5670 5667 5664 5659 5655 5651 5647 5644 5640 5635 5631 5626 5622 5618 5614 5610 5606 5601 5596 5591 5587
5680 5678 5680 5679 5680 5682 5685 5688 5687 5684 5681 5678 5675 5679 5682 5681 5676 5674 5672 5670 5667 5663 5660 5655 5651 5647 5642 5637 5633 5629 5625 5619 5615 5611 5607 5602 5597 5593 5587 5581 5576 5571 5566 5561
5665 5665 5665 5667 5668 5669 5670 5672 5672 5669 5664 5664 5662 5667 5668 5665 5662 5658 5655 5653 5649 5646 5642 5637 5634 5629 5623 5619 5614 5609 5604 5599 5595 5590 5586 5582 5575 5570 5565 5560 5554 5548 5542 5536
5649 5650 5650 5652 5654 5653 5655 5660 5659 5654 5653 5646 5656 5652 5654 5648 5646 5641 5636 5633 5631 5630 5626 5621 5616 5610 5605 5601 5596 5590 5585 5580 5575 5570 5566 5561 5556 5550 5544 5537 5530 5523 5516 5510
5634 5634 5636 5637 5638 5639 5640 5646 5640 5640 5639 5635 5635 5638 5639 5632 5626 5625 5620 5616 5615 5611 5607 5603 5599 5594 5589 5584 5577 5572 5567 5562 5557 5551 5546 5540 5533 5527 5520 5513 5505 5498 5492 5485
5621 5621 5623 5620 5623 5621 5619 5631 5630 5625 5624 5624 5618 5626 5617 5616 5611 5608 5605 5600 5596 5592 5587 5585 5581 5577 5572 5566 5559 5555 5548 5542 5536 5530 5523 5517 5510 5503 5497 5489 5483 5477 5472 5468
5606 5608 5606 5602 5605 5597 5612 5617 5612 5608 5608 5605 5602 5602 5600 5595 5592 5590 5586 5583 5577 5574 5572 5568 5563 5558 5553 5548 5541 5534 5527 5521 5515 5508 5501 5494 5487 5481 5475 5469 5465 5459 5455 5451
5592 5593 5589 5584 5584 5586 5594 5597 5595 5589 5593 5588 5585 5585 5579 5577 5575 5576 5569 5562 5560 5556 5553 5549 5545 5540 5534 5528 5521 5514 5508 5500 5493 5485 5478 5471 5465 5461 5457 5453 5449 5443 5439 5433
5579 5578 5575 5571 5565 5565 5578 5577 5572 5568 5569 5574 5565 5563 5560 5558 5557 5561 5548 5546 5542 5538 5533 5528 5524 5520 5514 5506 5500 5494 5486 5479 5471 5464 5459 5453 5449 5445 5441 5438 5432 5427 5422 5418
5564 5562 5559 5555 5548 5547 5554 5558 5552 5546 5553 5551 5548 5546 5543 5541 5540 5537 5534 5530 5525 5519 5514 5509 5503 5499 5493 5485 5478 5472 5465 5459 5453 5448 5443 5439 5435 5431 5426 5422 5415 5411 5406 5401
5548 5544 5546 5540 5534 5531 5538 5533 5533 5529 5524 5529 5530 5527 5525 5525 5522 5517 5512 5511 5506 5502 5496 5489 5483 5479 5472 5465 5457 5452 5447 5441 5438 5433 5429 5425 5421 5417 5411 5406 5400 5395 5389 5385
5528 5532 5530 5527 5523 5519 5514 5512 5509 5508 5509 5511 5512 5509 5505 5504 5503 5499 5495 5491 5485 5481 5475 5469 5462 5458 5452 5444 5439 5435 5431 5427 5423 5419 5414 5410 5405 5400 5395 5390 5385 5379 5372 5367
5514 5518 5513 5511 5510 5501 5495 5490 5490 5488 5491 5492 5492 5490 5485 5483 5481 5479 5476 5472 5465 5458 5451 5445 5441 5437 5433 5427 5423 5419 5416 5412 5408 5404 5399 5395 5390 5385 5380 5375 5369 5364 5357 5352
5503 5503 5499 5494 5488 5480 5475 5472 5470 5470 5475 5476 5472 5470 5467 5462 5462 5458 5455 5451 5444 5438 5433 5427 5423 5419 5416 5410 5407 5404 5400 5397 5392 5388 5384 5379 5375 5370 5365 5359 5353 5347 5341 5336
5492 5487 5480 5473 5467 5458 5457 5455 5455 5455 5456 5455 5453 5453 5450 5444 5442 5438 5435 5430 5426 5421 5417 5413 5409 5404 5401 5397 5392 5388 5384 5380 5377 5373 5368 5363 5359 5354 5349 5344 5338 5331 5327 5321